User: anonymous   Login
Location: Bluff Heights
(33.7692°N, 118.1592°W)
Time: 19:25:11
(UTC+00:00)
Language:

S-56A Canister/Altair - Orbit

View from above orbital plane
View from above orbital plane
View from above satellite
View from above satellite

Ground track
Ground track

The orbit data is extracted from the following two-line orbital elements,

1 00082U 61004B   21207.26570305 -.00000125  00000-0 -76064-4 0  9998
2 00082  38.8615 143.1112 1176471 232.5175 116.2748 12.26029561857371
Epoch (UTC): 26 July 2021 06:22:36
Eccentricity: 0.1176471
inclination: 38.8615°
perigee height: 632 km
apogee height: 2501 km
right ascension of ascending node: 143.1112°
argument of perigee: 232.5175°
revolutions per day: 12.26029561
mean anomaly at epoch: 116.2748°
orbit number at epoch: 85737

The dashed part of the orbit path shows where the satellite is in the earth's shadow,  

DLR